User: anonymous   Login
Location: Newark
(45.7500°N, 8.6667°E)
Time: 22:39:43
(UTC+00:00)
Language:

ISS - Orbit

View from above orbital plane
View from above orbital plane
View from above satellite
View from above satellite

Ground track
Ground track

The orbit data is extracted from the following two-line orbital elements,

1 25544U 98067A   19264.50795444  .00016717  00000-0  10270-3 0  9030
2 25544  51.6386 243.5672 0007482  69.1410 291.0541 15.50072768 30198
Epoch (UTC): 21 September 2019 12:11:27
Eccentricity: 0.0007482
inclination: 51.6386°
perigee height: 411 km
apogee height: 421 km
right ascension of ascending node: 243.5672°
argument of perigee: 69.1410°
revolutions per day: 15.50072768
mean anomaly at epoch: 291.0541°
orbit number at epoch: 3019

The dashed part of the orbit path shows where the satellite is in the earth's shadow,  

DLR